Location: Dobel
(48.7976°N, 8.4940°E)
Time: 00:02:35
(UTC+00:00)

Daily predictions for brighter satellites

Satellite Brightness Start Highest point End
(mag) Time Altitude Azimuth Time Altitude Azimuth Time Altitude Azimuth
Cosmos 2369 Rocket 4.3 02:52:23 21° E 02:52:23 21° E 02:56:22 10° NE
USA 215 4.2 02:54:48 10° E 02:59:30 41° NE 02:59:30 41° NE
Cosmos 1943 Rocket 4.0 03:12:50 26° NE 03:12:50 26° NE 03:15:13 10° NE
Tsikada Rocket 4.4 03:31:33 60° ENE 03:31:33 60° ENE 03:37:11 10° NNE
CENTAUR R/B 2.7 03:44:24 64° NNE 03:44:24 64° NNE 03:50:39 10° NE
Cosmos 2278 Rocket 4.4 03:51:48 14° N 03:51:48 14° N 03:52:46 10° NNE
NOSS 3-2 (A) 3.9 04:04:16 48° N 04:04:16 48° N 04:09:54 10° NE
Cosmos 1151 Rocket 4.2 04:05:31 39° SE 04:05:31 39° SE 04:08:26 10° SSE
Cosmos 1486 Rocket 4.3 04:03:40 48° SSE 04:04:58 64° ESE 04:10:12 10° NNE
SL-8 R/B 4.4 04:07:03 47° SE 04:07:03 47° SE 04:10:37 10° ESE
DNEPR-1 R/B 4.0 04:11:35 70° SSE 04:11:35 70° SSE 04:16:36 10° SE
NOSS 3-2 (C) 3.3 04:12:49 70° NW 04:12:49 70° NW 04:19:27 10° NE
Cosmos 1833 4.2 04:15:44 56° NNW 04:17:00 80° ENE 04:22:44 10° SSE
Okean 3 Rocket 4.4 04:13:39 10° S 04:18:03 52° E 04:22:28 10° NNE
Meteor 2-3 Rocket 4.4 04:20:25 40° NNW 04:20:25 40° NNW 04:24:14 10° N
Cosmos 1766 Rocket 3.9 04:16:51 10° S 04:21:07 61° E 04:25:23 10° NNE
BREEZE-M DEB (TANK) 3.8 04:21:03 42° SSW 04:21:18 42° SSW 04:31:54 10° SE
SL-27 R/B 4.0 04:21:23 33° ENE 04:21:23 33° ENE 04:24:38 10° SE
Envisat 3.5 04:18:29 10° NNE 04:23:32 60° E 04:28:32 10° S
Cosmos 968 Rocket 4.1 04:27:18 41° N 04:27:18 41° N 04:30:51 10° NNE
Cosmos 1328 Rocket 3.7 04:25:33 61° NNE 04:26:10 72° E 04:30:29 10° SSE
Cosmos 2263 4.2 04:24:35 18° SSW 04:28:52 81° ESE 04:34:38 10° NNE
Cosmos 2297 Rocket 4.3 04:25:42 10° N 04:29:44 20° NE 04:33:54 10° E
Cosmos 2098 Rocket 3.1 04:32:19 35° SSW 04:34:12 84° W 04:39:37 10° N
Meteor 1-10 Rocket 4.3 04:30:28 12° N 04:35:40 74° ENE 04:41:13 10° SSE
Cosmos 2369 Rocket 2.0 04:34:16 49° SW 04:35:44 70° WNW 04:41:22 10° NNE
Cosmos 2344 3.8 04:34:44 41° WNW 04:36:31 47° NNW 04:44:29 10° NE
Cosmos 2142 Rocket 4.4 04:30:55 10° N 04:37:17 80° W 04:43:40 10° S
FALCON 9 DEB 4.4 04:40:34 34° NE 04:40:34 34° NE 04:42:50 10° ENE
SL-19 R/B 4.2 04:34:03 10° S 04:39:33 62° WSW 04:41:27 40° NW
USA 238 DEB 3.8 04:39:34 44° WNW 04:41:00 50° NW 04:47:47 10° NE
USA 238 3.8 04:39:38 44° WNW 04:41:06 51° NW 04:47:54 10° NE
Cosmos 1656 Rocket 3.4 04:37:55 22° SSW 04:41:29 83° WNW 04:46:58 10° NNE
Cosmos 2279 Rocket 3.8 04:35:27 10° NNW 04:41:40 78° W 04:47:50 10° S
COSMO-SKYMED 1 2.4 04:37:45 10° S 04:42:05 79° WSW 04:42:51 59° NNW
H-2A R/B 3.7 04:39:56 10° NNE 04:46:54 14° SSW 04:47:26 10° SSW
USA 215 3.2 04:37:10 10° ESE 04:43:43 87° NNE 04:46:50 35° NW
Meteor 1-31 Rocket 3.0 04:40:21 10° NNE 04:44:15 69° ESE 04:48:09 10° S
Helios 1B 4.5 04:45:32 10° S 04:49:49 62° WSW 04:50:21 57° WNW
CBERS 1 LM4 rocket 4.4 04:47:32 10° NNE 04:52:26 85° ESE 04:57:30 10° SSW
CZ-4B R/B 4.1 04:48:47 10° NNE 04:53:17 89° ESE 04:57:45 10° SSW
CZ-4B R/B 4.3 04:51:38 10° E 04:53:31 15° ENE 04:55:23 10° NNE
Cosmos 1408 Rocket 3.9 04:49:21 10° S 04:53:35 63° E 04:57:51 10° NNE
CZ-2C R/B 2.6 04:48:18 10° S 04:53:43 65° WSW 04:57:37 19° NNW
Cosmos 1943 Rocket 3.1 04:54:23 29° NW 04:54:23 29° NW 04:58:42 10° NNE
Kosmos-917 4.3 04:57:04 44° NNW 04:57:06 44° NNW 05:02:29 10° NE
Cosmos 1354 Rocket 4.0 04:54:36 10° SSW 04:59:54 89° ESE 05:05:15 10° NNE
Cosmos 1634 Rocket 4.4 04:58:14 28° NW 05:00:35 38° W 05:06:14 10° SSW
Meteor 2-15 4.3 04:56:53 10° NNW 05:02:58 79° W 05:09:00 10° S
Cosmos 2227 Rocket 4.0 05:01:12 10° N 05:05:49 25° NE 05:10:25 10° E
Cosmos 1862 3.8 05:07:19 37° NW 05:07:19 37° NW 05:10:14 10° N
Landsat 5 3.7 05:05:36 10° S 05:10:00 54° W 05:12:32 24° NNW
Cosmos 1515 Rocket 3.4 05:06:34 15° NNW 05:10:08 74° W 05:14:27 10° S
ADEOS 3.7 05:07:18 10° NNE 05:12:34 80° ESE 05:17:47 10° SSW
SJ 16-02 1.9 05:08:36 10° S 05:12:54 60° ESE 05:17:14 10° NNE
BREEZE-M DEB (TANK) 3.2 05:16:52 35° W 05:18:16 81° N 05:26:44 10° E
Meteor 2-19 Rocket 4.3 05:13:35 10° S 05:19:38 85° W 05:25:44 10° N
NOAA 11 4.2 05:18:38 10° NNE 05:24:08 90° SW 05:29:39 10° SSW
Cosmos 1538 Rocket 4.1 05:20:40 10° NNW 05:25:55 80° ENE 05:31:07 10° SSE
COSMOS 2487 2.5 05:23:41 18° NNW 05:26:02 72° ENE 05:29:21 10° SSE
CZ-4C R/B 3.2 05:23:08 10° S 05:26:05 37° W 05:26:28 36° W
Cosmos 1500 Rocket 3.6 05:26:38 10° S 05:31:06 88° E 05:35:37 10° N
CZ-2C R/B 3.0 05:26:49 10° NNE 05:31:44 84° ESE 05:36:51 10° SSW
SMAP 4.0 05:29:58 10° NNE 05:34:31 51° E 05:39:03 10° S
CENTAUR R/B 3.6 05:31:36 20° WNW 05:35:15 32° NNW 05:42:02 10° NE
Sich 1 4.1 05:33:11 10° SSE 05:37:17 48° E 05:41:25 10° NNE
FALCON 9 DEB 3.6 05:37:32 25° NW 05:38:35 35° N 05:41:18 10° ENE
CZ-4B R/B 2.5 05:36:05 10° NNE 05:39:40 85° WNW 05:43:16 10° SSW
H-2A R/B 4.0 05:35:32 10° NNE 05:39:53 31° E 05:44:15 10° SSE
Cosmos 1503 Rocket 4.4 05:35:15 10° SW 05:40:12 40° WNW 05:45:15 10° NNE
ATLAS 5 CENTAUR R/B 1.4 05:37:02 10° SW 05:40:54 84° SE 05:45:19 10° NE
Cosmos 2219 4.4 05:35:45 10° NNW 05:41:02 39° NE 05:46:19 10° ESE
Meteor 1-27 Rocket 3.8 05:35:35 10° NNW 05:41:05 55° W 05:46:40 10° S
FALCON 9 DEB 3.5 05:40:01 25° NW 05:41:11 38° N 05:43:53 10° E
FALCON 9 DEB 3.4 05:40:11 25° NW 05:41:23 40° NNE 05:44:06 10° E
Cosmos 1805 Rocket 3.8 05:38:55 10° S 05:43:17 71° E 05:47:38 10° NNE
H-2A R/B 2.0 05:39:41 10° S 05:43:58 76° WSW 05:48:24 10° NNW
Meteor PRIRODA 3.5 05:40:55 10° N 05:44:31 65° WNW 05:48:06 10° SSW
Cosmos 1500 4.3 05:41:26 10° S 05:45:06 48° E 05:48:47 10° NNE
Cosmos 1777 Rocket 3.9 05:42:14 10° SSW 05:47:26 67° WNW 05:52:40 10° NNE
USA 32 4.0 05:43:11 10° N 05:48:26 75° W 05:53:39 10° S
FAST Rocket 4.1 05:47:22 10° SSW 05:49:59 57° WNW 05:53:24 10° N
Lacrosse 4 Rocket 3.4 05:47:28 10° NNW 05:51:11 25° NE 05:54:56 10° E
Cosmos 1515 3.7 05:49:41 10° NNW 05:53:26 57° W 05:57:10 10° S
Cosmos 1340 Rocket 2.9 05:51:46 10° SSW 05:55:38 51° WNW 05:59:35 10° N
SL-27 R/B 3.9 05:54:53 16° WNW 05:56:11 20° W 05:58:48 10° SSW
Okean O Rocket 4.2 05:54:07 10° NE 05:57:45 24° E 06:01:19 10° SSE
Cosmos 2026 Rocket 4.1 05:52:47 10° S 05:59:09 87° E 06:05:26 10° N
Cosmos 923 Rocket 4.3 05:55:48 10° NNW 06:01:10 73° ENE 06:06:30 10° SSE
Envisat 4.1 05:58:15 10° N 06:02:09 23° WNW 06:06:03 10° WSW
Cosmos 2195 Rocket 4.4 05:57:02 10° SSW 06:03:10 77° W 06:09:18 10° N
NOAA 6 4.1 05:58:09 10° NNE 06:03:18 83° ESE 06:08:26 10° SSW
ATLAS 3B R/B 2.7 05:57:54 10° SW 06:04:28 88° NW 06:11:25 10° NE
FALCON 9 DEB 3.4 06:03:14 15° NW 06:05:23 40° N 06:08:08 10° E
Cosmos 1553 Rocket 4.2 06:02:01 10° N 06:08:07 73° E 06:14:12 10° SSE
Cosmos 158 Rocket 4.3 06:05:23 10° NNW 06:10:16 46° WSW 06:15:17 10° S
Meteor 1-25 Rocket 4.2 06:05:03 10° SSW 06:10:38 71° WNW 06:16:13 10° N
Cosmos 1939 Rocket 2.9 06:09:37 10° N 06:13:27 50° WNW 06:17:11 10° SSW
Cosmos 1809 Rocket 4.4 06:07:28 10° SSW 06:13:38 73° WNW 06:19:47 10° N
PSLV R/B 3.9 06:10:05 10° S 06:14:09 79° WSW 06:18:17 10° NNW
Cosmos 1666 3.4 06:10:35 10° S 06:14:17 57° E 06:18:00 10° NNE
Cosmos 2297 Rocket 2.3 06:08:58 10° NNW 06:14:41 84° ENE 06:20:21 10° SSE
FALCON 9 DEB 3.8 06:13:36 11° WNW 06:16:42 41° N 06:19:57 10° E
EO 1 Delta rocket 4.4 06:11:00 10° N 06:17:35 76° WNW 06:22:46 10° SSW
Cosmos 1174 3.7 06:15:06 10° WSW 06:17:53 35° NW 06:20:56 10° NNE
Meteor 1-31 Rocket 4.5 06:16:09 10° NNW 06:18:07 14° WNW 06:20:06 10° W
Cosmos 2369 Rocket 3.6 06:17:09 10° WNW 06:20:51 18° NW 06:24:34 10° N
Cosmos 1607 4.2 06:17:46 10° NW 06:23:54 57° WSW 06:29:53 10° SSE
CZ-4B R/B 1.8 06:22:03 10° S 06:25:12 41° W 06:28:20 10° NNW
Cosmos 1633 Rocket 3.4 06:20:57 10° S 06:25:16 70° E 06:29:36 10° NNE
USA 215 4.2 06:21:25 10° SSE 06:27:13 34° SW 06:33:03 10° WNW
SL-4 R/B 3.6 06:24:01 10° SSW 06:27:19 35° SE 06:30:51 10° ENE
Okean 1 3.7 06:25:20 10° NNW 06:29:05 41° W 06:32:48 10° SSW
Cosmos 2112 Rocket 4.2 06:24:05 10° NNW 06:29:27 82° ENE 06:34:45 10° SSE
